#timestamp,LO_Frequency,Hit,StdDev 
1607889615.1,286046998.6,N
1607889635.8,286046999.0,P
1607889655.7,286046996.9,P
1607889675.5,286046996.7,Y
1607889695.3,286046998.9,P
1607889715.2,286047000.4,N
1607889735.0,286046999.5,N
1607889735.9,286046999.5,N
1607889755.8,286046996.9,Y
1607889775.6,286046998.6,P
1607889795.4,286046998.6,P
1607889815.2,286047001.2,P
1607889835.1,286046999.0,N
1607889836.0,286046999.0,N
1607889855.8,286047000.9,N
1607889875.6,286047001.1,N
1607889895.5,286046998.3,N
1607889915.3,286046998.7,N
1607889935.1,286046999.2,N
1607889955.9,286046999.0,N
1607889975.7,286046999.5,N
1607889995.5,286046996.9,Y
1607890015.4,286046999.2,P
1607890035.2,286046996.5,P
1607890055.0,286046996.8,N
1607890055.9,286046996.8,N
1607890075.8,286046997.4,N
1607890095.6,286046997.6,N
1607890115.4,286046997.3,N
1607890135.3,286046997.2,N
1607890155.1,286046997.0,Y
1607890175.8,286047000.8,P
1607890195.7,286046999.0,N
1607890215.5,286046998.8,N
1607890235.3,286046999.3,N
1607890255.2,286046999.2,N
1607890275.9,286046998.3,N
1607890295.7,286046996.5,Y
1607890315.6,286046998.5,P
1607890335.4,286046999.4,N
1607890355.2,286046998.6,P
1607890375.1,286046999.4,N
1607890376.0,286046999.4,N
1607890395.8,286046997.1,Y
1607890415.6,286046996.5,P
1607890435.5,286046998.2,N
1607890455.3,286046998.6,N
1607890475.1,286046999.1,N
1607890495.9,286046996.9,Y
1607890515.7,286047001.2,P
1607890535.5,286047001.2,N
1607890555.4,286046998.7,N
1607890575.2,286046998.6,N
1607890595.0,286046998.4,N
1607890595.9,286046998.4,N
1607890615.8,286046998.3,N
1607890635.6,286046996.5,N
1607890655.4,286046996.6,N
1607890675.3,286046996.6,N
1607890695.1,286046997.8,N
1607890696.0,286046997.8,N
1607890715.8,286046997.8,N
1607890735.7,286046996.7,N
1607890755.5,286046999.0,N
1607890775.3,286046996.6,N
1607890795.1,286046996.5,N
1607890815.9,286046999.4,N
1607890835.7,286046999.2,N
1607890855.5,286046997.0,N
1607890875.4,286046997.3,N
1607890895.2,286046999.5,N
1607890915.0,286046996.5,N
1607890915.9,286046996.5,N
1607890935.8,286046996.9,N
1607890955.6,286046996.8,N
1607890975.4,286046997.8,N
1607890995.3,286046995.1,Y
1607891015.1,286046996.7,P
1607891035.8,286046999.5,N
1607891055.7,286046998.8,N
1607891075.5,286046998.4,N
1607891095.3,286046998.7,N
1607891115.2,286047000.8,N
1607891135.9,286047000.6,N
1607891155.7,286047001.2,N
1607891175.6,286046998.3,N
1607891195.4,286046999.3,N
1607891215.2,286046999.0,N
1607891235.1,286046999.3,N
1607891236.0,286046999.3,N
1607891255.8,286046999.4,N
1607891275.6,286046998.7,N
1607891295.5,286046998.6,N
1607891315.3,286046999.3,N
1607891335.1,286046998.6,N
1607891355.9,286046999.0,N
1607891375.7,286046998.3,N
1607891395.5,286046999.9,N
1607891415.3,286047000.5,N
1607891435.2,286047001.1,N
1607891455.0,286047001.1,N
1607891455.9,286047001.1,N
1607891475.7,286047001.1,N
1607891495.6,286047000.3,N
1607891515.4,286047000.0,N
1607891535.2,286047000.1,N
1607891555.1,286047001.0,N
1607891556.0,286047001.0,N
1607891575.8,286047000.6,N
1607891595.6,286047002.8,N
1607891615.5,286047002.8,N
1607891635.3,286047001.9,N
1607891655.1,286047002.7,N
1607891675.9,286047000.2,N
1607891695.7,286047002.5,N
1607891715.5,286047002.4,N
1607891735.4,286047002.4,N
1607891755.2,286047002.4,N
1607891775.0,286047002.6,N
1607891775.9,286047002.6,N
1607891795.8,286047002.5,N
1607891815.6,286047002.6,N
1607891835.4,286047002.6,N
1607891855.3,286047002.7,N
1607891875.1,286047001.9,N
1607891895.8,286047002.2,N
1607891915.7,286047001.6,N
1607891935.5,286047002.2,N
1607891955.3,286047002.6,N
1607891975.2,286047002.5,N
1607891995.0,286046999.7,N
1607891995.9,286046999.7,N
1607892015.7,286047000.2,N
1607892035.6,286047002.8,N
1607892055.4,286046999.7,N
1607892075.2,286047002.2,N
1607892095.1,286047002.6,N
1607892096.0,286047002.6,N
1607892115.8,286046999.8,N
1607892135.6,286047002.6,N
1607892155.5,286047002.1,N
1607892175.3,286047001.9,N
1607892195.1,286047002.1,N
1607892215.9,286047000.2,N
1607892235.7,286047000.6,N
1607892255.5,286046998.1,N
1607892275.4,286047000.3,N
1607892295.2,286047002.6,N
1607892315.0,286047002.7,N
1607892315.9,286047002.7,N
1607892335.8,286047000.5,N
1607892355.6,286047002.3,N
1607892375.4,286047002.8,N
1607892395.3,286047002.2,N
1607892415.1,286047002.8,N
1607892416.0,286047002.8,N
1607892435.8,286047001.2,N
1607892455.7,286047000.9,N
1607892475.5,286047000.7,N
1607892495.3,286047002.7,N
1607892515.2,286047002.4,N
1607892535.9,286047002.6,N
1607892555.7,286047002.8,N
1607892575.6,286047000.1,N
1607892595.4,286047002.3,N
1607892615.2,286047002.8,N
1607892635.1,286047000.0,N
1607892636.0,286047000.0,N
1607892655.8,286046999.9,N
1607892675.6,286047000.2,N
1607892695.5,286047000.4,N
1607892715.3,286046998.1,N
1607892735.1,286047000.1,N
1607892755.8,286046998.4,N
1607892775.7,286047000.5,N
1607892795.5,286046998.1,N
1607892815.3,286046998.6,N
1607892835.2,286046998.7,N
1607892855.0,286046998.6,N
1607892855.9,286046998.6,N
1607892875.7,286046998.1,N
1607892895.6,286047000.5,N
1607892915.4,286047001.0,N
1607892935.2,286046998.6,N
1607892955.1,286046999.6,N
1607892956.0,286046999.6,N
1607892975.8,286046998.7,N
1607892995.6,286046999.4,N
1607893015.5,286046998.1,N
1607893035.3,286046999.3,N
1607893055.1,286046998.4,N
1607893075.9,286047000.7,N
1607893095.7,286046999.2,N
1607893115.5,286046999.1,N
1607893135.4,286046999.0,N
1607893155.2,286046999.3,N
1607893175.0,286046996.9,Y
1607893175.9,286046996.9,P
1607893195.8,286047000.7,N
